K9BM Weather Reports


time (UTC)temp
C
wind
direction
speed
KPH
gust
KPH
rain 1hr
cm
rain 24hr
cm
rain mn
cm
humidity
%
barometer
mb
20260505222505 6 185 9.7 19.3 0.00 0.03 0.03 65 1016.1
20260505222006 6 166 11.3 19.3 0.00 0.03 0.03 64 1016.1
20260505221505 6 202 9.7 16.1 0.00 0.03 0.03 67 1016.1
20260505221005 6 165 11.3 16.1 0.00 0.03 0.03 68 1016.1
20260505220005 5 189 8.0 16.1 0.00 0.03 0.03 72 1016.2
20260505215505 5 197 9.7 16.1 0.00 0.03 0.03 74 1016.3
20260505214005 4 197 9.7 19.3 0.00 0.03 0.03 77 1016.2
20260505213005 3 243 12.9 19.3 0.00 0.03 0.03 82 1016.2
20260505212505 3 234 11.3 19.3 0.00 0.03 0.03 85 1016.2
20260505211505 3 234 9.7 19.3 0.00 0.03 0.03 86 1016.2
20260505211005 2 203 8.0 19.3 0.00 0.03 0.03 86 1016.4
20260505210004 2 216 8.0 32.2 0.00 0.03 0.03 85 1016.5
20260505205505 2 233 11.3 32.2 0.00 0.03 0.03 82 1016.6
20260505205005 2 247 12.9 22.5 0.00 0.03 0.03 84 1016.4
20260505204505 2 224 9.7 14.5 0.00 0.03 0.03 84 1016.3
20260505204005 2 244 9.7 16.1 0.00 0.03 0.03 84 1016.3
20260505203505 2 241 9.7 16.1 0.00 0.03 0.03 84 1016.2
20260505203005 2 220 9.7 16.1 0.03 0.03 0.03 84 1016.2
20260505202505 3 238 9.7 14.5 0.03 0.03 0.03 84 1016.3
20260505202006 3 206 8.0 12.9 0.03 0.03 0.03 84 1016.4
20260505201005 2 273 8.0 11.3 0.03 0.03 0.03 82 1016.4
20260505200005 2 316 3.2 12.9 0.03 0.03 0.03 87 1016.5
20260505195505 2 320 4.8 8.0 0.03 0.03 0.03 88 1016.5
20260505194505 2 291 4.8 14.5 0.03 0.03 0.03 88 1016.5
20260505194006 2 344 11.3 16.1 0.03 0.03 0.03 87 1016.6
20260505193506 2 333 9.7 16.1 0.03 0.03 0.03 88 1016.7
20260505192505 2 4 8.0 19.3 0.00 0.00 0.00 86 1016.8
20260505192005 2 2 11.3 19.3 0.00 0.00 0.00 85 1016.9
20260505191505 2 22 9.7 16.1 0.00 0.00 0.00 85 1016.8
20260505191005 2 27 9.7 16.1 0.00 0.00 0.00 84 1016.8
20260505185505 3 350 16.1 33.8 0.00 0.00 0.00 74 1016.6
20260505185005 3 10 16.1 35.4 0.00 0.00 0.00 70 1016.4
20260505184505 5 352 22.5 35.4 0.00 0.00 0.00 59 1016.2
20260505184005 5 329 14.5 24.1 0.00 0.00 0.00 56 1015.9
20260505183505 5 335 14.5 20.9 0.00 0.00 0.00 57 1015.8
20260505183006 5 332 8.0 19.3 0.00 0.00 0.00 56 1015.8
20260505182504 5 328 9.7 22.5 0.00 0.00 0.00 55 1015.8
20260505182005 6 349 11.3 22.5 0.00 0.00 0.00 54 1015.8
20260505181505 6 302 11.3 32.2 0.00 0.00 0.00 54 1015.8
20260505180005 7 330 8.0 19.3 0.00 0.00 0.00 45 1015.6
20260505175505 7 164 3.2 12.9 0.00 0.00 0.00 46 1015.6
20260505175005 7 297 8.0 12.9 0.00 0.00 0.00 47 1015.8
20260505174505 6 240 6.4 19.3 0.00 0.00 0.00 46 1015.7
20260505174005 6 153 3.2 19.3 0.00 0.00 0.00 50 1015.8
20260505173505 6 254 8.0 19.3 0.00 0.00 0.00 50 1015.8
20260505173005 6 260 8.0 20.9 0.00 0.00 0.00 50 1015.9
20260505172005 5 338 4.8 16.1 0.00 0.00 0.00 50 1016.1
20260505171505 5 287 6.4 12.9 0.00 0.00 0.00 51 1016.2
20260505171006 5 304 4.8 11.3 0.00 0.00 0.00 52 1016.2
20260505170005 4 336 1.6 16.1 0.00 0.00 0.00 51 1016.3
20260505164504 5 271 3.2 11.3 0.00 0.00 0.00 52 1016.3
20260505163505 4 313 1.6 8.0 0.00 0.00 0.00 51 1016.4
20260505163006 4 320 4.8 8.0 0.00 0.00 0.00 52 1016.4
20260505162006 4 319 1.6 8.0 0.00 0.00 0.00 52 1016.4
20260505161505 4 327 3.2 12.9 0.00 0.00 0.00 52 1016.4
20260505161005 4 322 6.4 12.9 0.00 0.00 0.00 52 1016.3
20260505153005 4 26 3.2 14.5 0.00 0.00 0.00 54 1016.2
20260505152505 4 30 4.8 12.9 0.00 0.00 0.00 55 1016.2
20260505151005 3 20 4.8 12.9 0.00 0.00 0.00 53 1016.2
20260505124005 0 42 3.2 4.8 0.00 0.00 0.00 77 1015.4
20260505123005 0 41 3.2 4.8 0.00 0.00 0.00 77 1015.2
20260505122505 0 41 3.2 4.8 0.00 0.00 0.00 77 1015.3
20260505120005 0 40 3.2 4.8 0.00 0.00 0.00 74 1015.2
20260505115005 -1 37 3.2 8.0 0.00 0.00 0.00 74 1015.3
20260505114505 -1 37 4.8 8.0 0.00 0.00 0.00 74 1015.4
20260505114005 0 36 4.8 8.0 0.00 0.00 0.00 72 1015.4
20260505113505 0 36 4.8 8.0 0.00 0.00 0.00 70 1015.4
20260505113005 0 38 4.8 8.0 0.00 0.00 0.00 70 1015.2
20260505112504 0 54 4.8 9.7 0.00 0.00 0.00 70 1015.2
20260505112004 0 55 4.8 9.7 0.00 0.00 0.00 70 1015.2
20260505111505 0 57 8.0 9.7 0.00 0.00 0.00 70 1015.1
20260505111005 0 61 4.8 8.0 0.00 0.00 0.00 70 1015.1
20260505102005 0 82 4.8 11.3 0.00 0.00 0.00 71 1015.3
20260505101505 0 90 6.4 12.9 0.00 0.00 0.00 71 1015.3
20260505101005 0 103 9.7 12.9 0.00 0.00 0.00 71 1015.2
20260505100004 0 100 6.4 11.3 0.00 0.00 0.00 69 1015.2
20260505095504 0 107 4.8 11.3 0.00 0.00 0.00 68 1015.2
20260505095005 0 105 9.7 11.3 0.00 0.00 0.00 68 1015.1
20260505094504 0 93 6.4 9.7 0.00 0.00 0.00 67 1015.1
20260505093504 1 93 8.0 9.7 0.00 0.00 0.00 64 1014.9
20260505093005 1 83 4.8 9.7 0.00 0.00 0.00 64 1014.9
20260505092504 1 76 4.8 9.7 0.00 0.00 0.00 63 1014.8
20260505092004 1 71 4.8 9.7 0.00 0.00 0.00 63 1014.8
20260505091005 1 80 1.6 4.8 0.00 0.00 0.00 62 1014.8
20260505090005 1 81 1.6 3.2 0.00 0.00 0.00 62 1014.8
20260505085505 1 81 0.0 3.2 0.00 0.00 0.00 62 1014.7
20260505085005 1 81 1.6 4.8 0.00 0.00 0.00 62 1014.7
20260505084004 1 81 3.2 11.3 0.00 0.00 0.00 60 1014.7
20260505083504 1 80 4.8 11.3 0.00 0.00 0.00 60 1014.6
20260505083005 2 79 8.0 12.9 0.00 0.00 0.00 59 1014.6
20260505082505 2 61 9.7 19.3 0.00 0.00 0.00 58 1014.4
20260505082005 2 52 9.7 19.3 0.00 0.00 0.00 58 1014.3
20260505081505 2 40 9.7 19.3 0.00 0.00 0.00 57 1014.3
20260505081004 3 39 11.3 19.3 0.00 0.00 0.00 55 1014.5
20260505075505 3 33 8.0 16.1 0.00 0.00 0.00 53 1014.3
20260505075005 4 26 8.0 19.3 0.00 0.00 0.00 53 1014.3
20260505074504 4 16 11.3 20.9 0.00 0.00 0.00 52 1014.3
20260505074005 5 24 14.5 20.9 0.00 0.00 0.00 50 1014.2
20260505073504 5 54 4.8 8.0 0.00 0.00 0.00 51 1014.1
20260505073005 5 75 3.2 8.0 0.00 0.00 0.00 49 1013.9
20260505072505 5 81 4.8 8.0 0.00 0.00 0.00 49 1013.8
20260505072004 5 83 4.8 4.8 0.00 0.00 0.00 50 1013.8
20260505071504 5 84 3.2 4.8 0.00 0.00 0.00 50 1013.8
20260505071005 5 84 3.2 8.0 0.00 0.00 0.00 51 1013.9
20260505070005 5 81 4.8 9.7 0.00 0.00 0.00 49 1013.8
20260505065505 5 89 3.2 11.3 0.00 0.00 0.00 49 1013.7
20260505064504 5 89 4.8 9.7 0.00 0.00 0.00 50 1013.7
20260505063504 6 53 1.6 12.9 0.00 0.00 0.00 49 1013.6
20260505062504 6 71 4.8 9.7 0.00 0.00 0.00 49 1013.7
20260505062005 6 79 3.2 4.8 0.00 0.00 0.00 50 1013.7
20260505061505 6 79 3.2 4.8 0.00 0.00 0.00 50 1013.7
20260505061005 6 79 3.2 9.7 0.00 0.00 0.00 50 1013.7
20260505060005 6 67 4.8 11.3 0.00 0.00 0.00 50 1013.6
20260505055504 6 52 8.0 11.3 0.00 0.00 0.00 49 1013.6
20260505055004 6 98 4.8 9.7 0.00 0.00 0.00 51 1013.6
20260505054504 6 83 4.8 19.3 0.00 0.00 0.00 51 1013.5
20260505054004 6 83 6.4 19.3 0.00 0.00 0.00 50 1013.4
20260505053505 6 88 8.0 12.9 0.00 0.00 0.00 52 1013.3
20260505052505 6 42 8.0 16.1 0.00 0.00 0.00 50 1013.3
20260505052005 6 82 6.4 19.3 0.00 0.00 0.00 51 1013.2
20260505051504 6 56 6.4 19.3 0.00 0.00 0.00 50 1013.3
20260505041504 6 54 14.5 29.0 0.00 0.00 0.00 50 1012.9
20260505041005 7 67 14.5 27.4 0.00 0.00 0.00 49 1012.9
20260505040005 7 71 17.7 25.7 0.00 0.00 0.00 50 1012.7
20260505035504 7 69 14.5 25.7 0.00 0.00 0.00 51 1012.6
20260505035004 7 58 14.5 19.3 0.00 0.00 0.00 53 1012.5
20260505034504 7 74 14.5 19.3 0.00 0.00 0.00 53 1012.4
20260505034004 7 78 12.9 19.3 0.00 0.00 0.00 54 1012.3
20260505033505 7 93 12.9 19.3 0.00 0.00 0.00 54 1012.1
20260505033004 7 83 12.9 19.3 0.00 0.00 0.00 54 1012.1
20260505032504 7 80 11.3 19.3 0.00 0.00 0.00 54 1012.0
20260505032004 7 72 9.7 19.3 0.00 0.00 0.00 53 1011.9
20260505031504 7 82 12.9 19.3 0.00 0.00 0.00 53 1011.9
20260505031004 7 69 9.7 19.3 0.00 0.00 0.00 53 1011.8
20260505030004 8 59 8.0 16.1 0.00 0.00 0.00 53 1011.7
20260505025504 8 48 11.3 16.1 0.00 0.00 0.00 52 1011.7
20260505025004 8 53 8.0 14.5 0.00 0.00 0.00 53 1011.6
20260505024504 8 55 8.0 16.1 0.00 0.00 0.00 52 1011.5
20260505023504 8 45 9.7 16.1 0.00 0.00 0.00 51 1011.3
20260505023005 8 47 6.4 9.7 0.00 0.00 0.00 51 1011.3
20260505022504 8 52 4.8 14.5 0.00 0.00 0.00 51 1011.3
20260505022005 8 38 6.4 16.1 0.00 0.00 0.00 50 1011.2
20260505021504 8 32 9.7 19.3 0.00 0.00 0.00 49 1011.2
20260505020004 9 25 9.7 19.3 0.00 0.00 0.00 47 1011.1
20260505015504 9 45 8.0 12.9 0.00 0.00 0.00 45 1011.1
20260505015004 9 63 3.2 11.3 0.00 0.00 0.00 44 1011.0
20260505014504 9 57 6.4 11.3 0.00 0.00 0.00 43 1011.0
20260505014004 9 64 6.4 11.3 0.00 0.00 0.00 43 1010.9
20260505013004 10 101 1.6 4.8 0.00 0.00 0.00 43 1010.8
20260505012504 10 102 3.2 4.8 0.00 0.00 0.00 42 1010.7
20260505012004 10 102 0.0 4.8 0.00 0.00 0.00 43 1010.7
20260505011504 10 102 1.6 4.8 0.00 0.00 0.00 43 1010.7
20260505011004 10 102 3.2 4.8 0.00 0.00 0.00 42 1010.7
20260505010004 10 102 4.8 4.8 0.00 0.00 0.00 42 1010.6
20260505005504 10 99 3.2 4.8 0.00 0.00 0.00 41 1010.6
20260505005004 10 99 1.6 4.8 0.00 0.00 0.00 42 1010.6
20260505004504 10 99 3.2 4.8 0.00 0.00 0.00 42 1010.6
20260505004005 10 99 3.2 4.8 0.00 0.00 0.00 42 1010.6
20260505003005 10 99 6.4 9.7 0.00 0.00 0.00 41 1010.5
20260505002504 10 86 4.8 8.0 0.00 0.00 0.00 41 1010.5
20260505002005 10 81 3.2 8.0 0.00 0.00 0.00 41 1010.4
20260505001004 10 81 4.8 8.0 0.00 0.00 0.00 41 1010.6
20260505000004 10 51 1.6 8.0 0.00 0.00 0.00 40 1010.4
20260504235504 10 51 1.6 8.0 0.00 0.00 0.00 39 1010.4
20260504235004 11 53 3.2 9.7 0.00 0.00 0.00 39 1010.4
20260504234504 11 37 3.2 9.7 0.00 0.00 0.00 39 1010.3
20260504234004 11 57 3.2 11.3 0.00 0.00 0.00 39 1010.2
20260504233505 11 79 4.8 11.3 0.00 0.00 0.00 40 1010.1
20260504232005 11 102 4.8 16.1 0.00 0.00 0.00 39 1010.0
20260504231505 11 100 8.0 16.1 0.00 0.00 0.00 40 1010.0
20260504231005 10 111 8.0 14.5 0.00 0.00 0.00 40 1010.0
20260504230005 10 98 11.3 14.5 0.00 0.00 0.00 42 1010.0
20260504225505 9 85 4.8 16.1 0.00 0.00 0.00 42 1010.0
20260504225005 9 82 9.7 16.1 0.00 0.00 0.00 42 1010.0
20260504224505 9 81 8.0 14.5 0.00 0.00 0.00 42 1009.9
20260504223505 9 32 8.0 14.5 0.00 0.00 0.00 44 1009.8